#timestamp,LO_Frequency,Hit,StdDev 
1543935615.2,286047003.8,N
1543935635.0,286047001.3,N
1543935635.9,286047001.3,N
1543935655.8,286047003.6,N
1543935675.6,286047004.0,N
1543935695.5,286047003.6,N
1543935715.3,286047004.1,N
1543935735.1,286047003.4,N
1543935755.9,286047006.0,Y
1543935775.7,286047002.0,P
1543935795.6,286047002.2,P
1543935815.4,286047000.1,N
1543935835.2,286047002.7,N
1543935855.1,286046998.4,N
1543935856.0,286046998.4,N
1543935875.8,286046998.3,N
1543935895.6,286046998.1,N
1543935915.5,286046998.5,N
1543935935.3,286046998.2,N
1543935955.2,286046998.8,N
1543935975.9,286047001.1,N
1543935995.7,286046998.2,N
1543936015.6,286046999.0,N
1543936035.4,286046995.0,N
1543936055.2,286046994.9,N
1543936075.1,286046998.0,N
1543936076.0,286046998.0,N
1543936095.8,286046995.1,N
1543936115.7,286046994.9,N
1543936135.5,286046997.5,N
1543936155.3,286046994.9,N
1543936175.2,286046997.2,N
1543936195.0,286046998.8,N
1543936195.9,286046998.8,N
1543936215.8,286046998.4,N
1543936235.6,286047001.1,N
1543936255.4,286046998.5,N
1543936275.3,286046998.9,N
1543936295.1,286046998.7,N
1543936315.8,286046998.3,N
1543936335.7,286046998.3,N
1543936355.5,286046996.7,N
1543936375.4,286046998.4,N
1543936395.2,286046998.9,N
1543936415.0,286046999.1,N
1543936415.9,286046999.1,N
1543936435.8,286046999.2,N
1543936455.6,286046997.7,N
1543936475.4,286046999.0,N
1543936495.3,286046999.5,N
1543936515.1,286046999.6,N
1543936535.9,286046998.9,N
1543936555.7,286046997.2,N
1543936575.5,286046996.8,N
1543936595.4,286046998.0,N
1543936615.2,286046997.5,N
1543936635.1,286046996.8,N
1543936636.0,286046996.8,N
1543936655.8,286046999.5,N
1543936675.6,286046996.6,N
1543936695.5,286046999.3,N
1543936715.3,286046999.0,N
1543936735.1,286046999.4,N
1543936755.9,286046998.2,N
1543936775.7,286046998.8,N
1543936795.6,286046996.9,N
1543936815.4,286046996.6,Y
1543936835.2,286046999.2,P
1543936855.1,286046996.9,P
1543936856.0,286046996.9,P
1543936875.8,286046999.2,N
1543936895.7,286046999.4,N
1543936915.5,286047002.8,N
1543936935.3,286047001.1,N
1543936955.2,286047001.0,N
1543936975.9,286047000.2,N
1543936995.7,286047001.4,N
1543937015.6,286047001.8,N
1543937035.4,286047004.0,N
1543937055.3,286047003.2,N
1543937075.1,286047003.9,N
1543937076.0,286047003.9,N
1543937095.8,286047011.9,Y
1543937115.7,286047004.3,P
1543937135.5,286047002.5,N
1543937155.3,286047000.9,N
1543937175.2,286047001.2,N
1543937195.0,286047000.8,N
1543937195.9,286047000.8,N
1543937215.8,286047001.1,N
1543937235.6,286046998.2,N
1543937255.4,286047000.3,N
1543937275.3,286046998.5,N
1543937295.1,286047001.1,N
1543937315.8,286046998.2,N
1543937335.7,286047000.2,N
1543937355.5,286047002.8,N
1543937375.4,286047000.2,N
1543937395.2,286046999.9,N
1543937415.0,286047002.6,N
1543937415.9,286047002.6,N
1543937435.8,286047000.0,N
1543937455.6,286047000.2,N
1543937505.5,286047002.4,E
1543937515.4,286047000.6,N
1543937535.2,286046998.7,P
1543937555.1,286046998.3,N
1543937556.0,286046998.3,N
1543937575.8,286047002.4,N
1543937595.7,286047000.0,N
1543937615.5,286047002.0,N
1543937635.3,286047007.4,Y
1543937655.2,286047007.4,P
1543937675.0,286047008.9,N
1543937675.9,286047008.9,N
1543937695.8,286047007.4,N
1543937715.6,286047008.0,N
1543937735.4,286047006.1,N
1543937755.3,286047006.8,N
1543937775.1,286047006.6,N
1543937795.8,286047007.0,N
1543937815.7,286047005.2,N
1543937835.5,286047007.0,Y
1543937855.4,286047002.6,P
1543937875.2,286047003.6,N
1543937895.0,286047004.1,N
1543937895.9,286047004.1,N
1543937915.8,286047005.0,Y
1543937935.6,286046998.9,P
1543937955.5,286047002.4,N
1543937975.3,286046999.9,N
1543937995.1,286047000.5,N
1543938015.9,286047005.9,Y
1543938035.7,286047002.0,P
1543938055.5,286047001.3,P
1543938075.4,286047004.2,P
1543938095.2,286047001.6,N
1543938115.1,286047001.6,N
1543938116.0,286047001.6,N
1543938135.8,286046999.7,N
1543938155.6,286047004.2,Y
1543938175.5,286047002.4,P
1543938195.3,286047002.5,P
1543938215.2,286047004.1,P
1543938235.9,286047002.9,Y
1543938255.7,286046996.5,P
1543938275.6,286046999.0,N
1543938295.4,286047001.5,N
1543938315.3,286047002.3,N
1543938335.1,286047004.2,N
1543938336.0,286047004.2,N
1543938355.8,286047002.1,N
1543938375.7,286047003.1,N
1543938395.5,286047004.3,N
1543938415.3,286047002.7,N
1543938435.2,286046996.6,N
1543938455.0,286046995.7,N
1543938455.9,286046995.7,N
1543938475.8,286046993.6,N
1543938495.6,286046990.1,N
1543938515.4,286046990.7,N
1543938535.3,286046988.6,N
1543938555.1,286046989.5,N
1543938575.9,286046988.4,N
1543938595.7,286046991.5,N
1543938615.5,286046989.4,N
1543938635.4,286046988.8,N
1543938655.2,286046989.5,N
1543938675.0,286046988.0,N
1543938675.9,286046988.0,N
1543938695.8,286046985.8,N
1543938715.6,286046986.4,N
1543938735.5,286046985.8,N
1543938755.3,286046987.0,N
1543938775.1,286046987.6,N
1543938795.9,286046985.7,N
1543938815.7,286046987.3,N
1543938835.5,286046987.4,N
1543938855.4,286046990.7,N
1543938875.2,286046988.5,N
1543938895.1,286046994.6,N
1543938896.0,286046994.6,N
1543938915.8,286046994.2,N
1543938935.6,286046996.0,N
1543938955.5,286046992.6,N
1543938975.3,286046994.8,N
1543938995.1,286046996.4,N
1543939015.9,286046998.0,N
1543939035.7,286046997.6,N
1543939055.6,286046996.8,N
1543939075.4,286047000.3,N
1543939095.2,286047005.6,N
1543939115.1,286047001.4,N
1543939116.0,286047001.4,N
1543939135.8,286047002.2,N
1543939155.7,286047000.4,N
1543939175.5,286047000.0,N
1543939195.3,286047001.6,N
